When you browse on this site, cookies collect data to enhance your experience and personalize the content and advertising you see.
Visit our Privacy Policy to learn more. By continuing to use the site, you agree to this use of cookies and data.
  • Em Portugal
  • Lista de países
  • Para 7 dias
  • Temperatura da água
  • Mapa do tempo
  • Widgets de tempo
  • user-avatar
    Iniciar Sessão

    Previsão horária em Kaprun

    Hoje, 10 Dezembro, Terça-feira

    Tempo Temperatura Precipitação Vento Pressão Humidade
    00:00 -7°C° 1 mm 2 m/s 589 mmHg 94%
    01:00 -7°C° 0 mm 2 m/s 590 mmHg 94%
    02:00 -7°C° 0.5 mm 2 m/s 590 mmHg 94%
    03:00 -7°C° 0.5 mm 2 m/s 591 mmHg 94%
    04:00 -8°C° 0.5 mm 2 m/s 591 mmHg 94%
    05:00 -9°C° 1.1 mm 3 m/s 592 mmHg 95%
    06:00 -9°C° 1.1 mm 3 m/s 593 mmHg 95%
    07:00 -9°C° 1.1 mm 3 m/s 594 mmHg 96%
    08:00 -9°C° 0.8 mm 3 m/s 594 mmHg 94%
    09:00 -10°C° 0.8 mm 4 m/s 594 mmHg 92%
    10:00 -10°C° 0.8 mm 4 m/s 595 mmHg 90%
    11:00 -10°C° 0.1 mm 3 m/s 595 mmHg 87%
    12:00 -10°C° 0.1 mm 3 m/s 595 mmHg 84%
    13:00 -10°C° 0.1 mm 3 m/s 596 mmHg 80%
    14:00 -12°C° 0 mm 3 m/s 595 mmHg 83%
    15:00 -13°C° 0 mm 2 m/s 594 mmHg 85%
    16:00 -14°C° 0 mm 2 m/s 593 mmHg 88%
    17:00 -15°C° 0 mm 2 m/s 593 mmHg 83%
    18:00 -15°C° 0 mm 2 m/s 593 mmHg 77%
    19:00 -15°C° 0 mm 2 m/s 594 mmHg 72%
    20:00 -15°C° 0 mm 2 m/s 594 mmHg 62%
    21:00 -14°C° 0 mm 2 m/s 594 mmHg 53%
    22:00 -13°C° 0 mm 2 m/s 594 mmHg 44%
    23:00 -13°C° 0 mm 2 m/s 594 mmHg 40%

    Amanhã, 11 Dezembro, Quarta-feira

    Tempo Temperatura Precipitação Vento Pressão Humidade
    00:00 -12°C° 0 mm 2 m/s 594 mmHg 36%
    01:00 -10°C° 0 mm 2 m/s 594 mmHg 32%
    02:00 -10°C° 0 mm 2 m/s 594 mmHg 30%
    03:00 -9°C° 0 mm 2 m/s 593 mmHg 29%
    04:00 -9°C° 0 mm 2 m/s 593 mmHg 28%
    05:00 -8°C° 0 mm 2 m/s 593 mmHg 28%
    06:00 -8°C° 0 mm 2 m/s 592 mmHg 27%
    07:00 -8°C° 0 mm 2 m/s 592 mmHg 27%
    08:00 -6°C° 0 mm 2 m/s 593 mmHg 32%
    09:00 -2°C° 0 mm 1 m/s 593 mmHg 37%
    10:00 -1°C° 0 mm 1 m/s 593 mmHg 42%
    11:00 0°C° 0 mm 1 m/s 593 mmHg 48%
    12:00 0°C° 0 mm 0 m/s 593 mmHg 55%
    13:00 +1°C° 0 mm 0 m/s 592 mmHg 62%
    14:00 -1°C° 0 mm 0 m/s 591 mmHg 58%
    15:00 -3°C° 0 mm 0 m/s 590 mmHg 54%
    16:00 -5°C° 0 mm 0 m/s 588 mmHg 49%
    17:00 -6°C° 0 mm 1 m/s 588 mmHg 47%
    18:00 -7°C° 0 mm 1 m/s 588 mmHg 44%
    19:00 -7°C° 0 mm 1 m/s 587 mmHg 41%
    20:00 -8°C° 0 mm 1 m/s 587 mmHg 42%
    21:00 -8°C° 0 mm 1 m/s 587 mmHg 42%
    22:00 -10°C° 0 mm 2 m/s 586 mmHg 42%
    23:00 -9°C° 0 mm 1 m/s 586 mmHg 50%

    Depois de amanhã, 12 Dezembro, Quinta-feira

    Tempo Temperatura Precipitação Vento Pressão Humidade
    00:00 -9°C° 0 mm 1 m/s 586 mmHg 58%
    01:00 -9°C° 0 mm 1 m/s 586 mmHg 66%
    02:00 -9°C° 0.1 mm 1 m/s 585 mmHg 74%
    03:00 -8°C° 0.1 mm 1 m/s 585 mmHg 82%
    04:00 -8°C° 0.1 mm 1 m/s 585 mmHg 90%
    05:00 -8°C° 0.6 mm 1 m/s 585 mmHg 91%
    06:00 -9°C° 0.6 mm 2 m/s 586 mmHg 93%
    07:00 -9°C° 0.6 mm 2 m/s 586 mmHg 95%
    08:00 -9°C° 0.4 mm 2 m/s 586 mmHg 92%
    09:00 -8°C° 0.4 mm 2 m/s 586 mmHg 90%
    10:00 -8°C° 0.4 mm 2 m/s 586 mmHg 87%
    11:00 -8°C° 0.1 mm 2 m/s 586 mmHg 85%
    12:00 -8°C° 0.1 mm 2 m/s 586 mmHg 83%
    13:00 -8°C° 0.1 mm 2 m/s 586 mmHg 81%
    14:00 -8°C° 0.1 mm 1 m/s 585 mmHg 85%
    15:00 -9°C° 0.1 mm 1 m/s 585 mmHg 88%
    16:00 -10°C° 0.1 mm 0 m/s 584 mmHg 92%
    17:00 -11°C° 0 mm 1 m/s 584 mmHg 90%
    18:00 -12°C° 0 mm 1 m/s 583 mmHg 87%
    19:00 -15°C° 0 mm 2 m/s 583 mmHg 85%
    20:00 -15°C° 0 mm 2 m/s 582 mmHg 85%
    21:00 -16°C° 0 mm 3 m/s 582 mmHg 85%
    22:00 -15°C° 0 mm 3 m/s 582 mmHg 85%
    23:00 -16°C° 0 mm 4 m/s 581 mmHg 85%

    13 Dezembro, Sexta-feira

    Tempo Temperatura Precipitação Vento Pressão Humidade
    00:00 -16°C° 0 mm 4 m/s 580 mmHg 85%
    01:00 -17°C° 0 mm 5 m/s 579 mmHg 85%
    02:00 -15°C° 0 mm 5 m/s 578 mmHg 84%
    03:00 -15°C° 0 mm 5 m/s 578 mmHg 83%
    04:00 -16°C° 0 mm 6 m/s 577 mmHg 82%
    05:00 -16°C° 0 mm 6 m/s 576 mmHg 82%
    06:00 -16°C° 0 mm 6 m/s 576 mmHg 81%
    07:00 -15°C° 0 mm 6 m/s 575 mmHg 81%
    08:00 -14°C° 0 mm 5 m/s 575 mmHg 81%
    09:00 -14°C° 0 mm 4 m/s 576 mmHg 81%
    10:00 -12°C° 0 mm 4 m/s 576 mmHg 81%
    11:00 -12°C° 0.1 mm 3 m/s 575 mmHg 82%
    12:00 -9°C° 0.1 mm 2 m/s 575 mmHg 84%
    13:00 -7°C° 0.1 mm 1 m/s 575 mmHg 85%
    14:00 -8°C° 0.3 mm 1 m/s 575 mmHg 88%
    15:00 -8°C° 0.3 mm 1 m/s 574 mmHg 90%
    16:00 -9°C° 0.3 mm 1 m/s 574 mmHg 92%
    17:00 -9°C° 0 mm 1 m/s 574 mmHg 90%
    18:00 -10°C° 0 mm 2 m/s 574 mmHg 87%
    19:00 -12°C° 0 mm 2 m/s 575 mmHg 85%
    20:00 -10°C° 0.1 mm 2 m/s 576 mmHg 86%
    21:00 -10°C° 0.1 mm 2 m/s 576 mmHg 86%
    22:00 -9°C° 0.1 mm 2 m/s 577 mmHg 87%
    23:00 -9°C° 0.2 mm 2 m/s 578 mmHg 88%

    14 Dezembro, Sábado

    Tempo Temperatura Precipitação Vento Pressão Humidade
    00:00 -9°C° 0.2 mm 2 m/s 578 mmHg 90%
    01:00 -8°C° 0.2 mm 1 m/s 579 mmHg 91%
    02:00 -9°C° 0 mm 2 m/s 579 mmHg 88%
    03:00 -10°C° 0 mm 2 m/s 579 mmHg 86%
    04:00 -12°C° 0 mm 2 m/s 580 mmHg 83%
    05:00 -12°C° 0 mm 2 m/s 580 mmHg 78%
    06:00 -12°C° 0 mm 2 m/s 580 mmHg 73%
    07:00 -12°C° 0 mm 2 m/s 581 mmHg 67%
    08:00 -9°C° 0.1 mm 2 m/s 582 mmHg 70%
    09:00 -7°C° 0.1 mm 2 m/s 583 mmHg 72%
    10:00 -5°C° 0.1 mm 2 m/s 584 mmHg 74%
    11:00 -5°C° 0 mm 3 m/s 585 mmHg 76%
    12:00 -5°C° 0 mm 3 m/s 585 mmHg 77%
    13:00 -4°C° 0 mm 3 m/s 585 mmHg 78%
    14:00 -5°C° 0 mm 3 m/s 585 mmHg 77%
    15:00 -4°C° 0 mm 2 m/s 585 mmHg 75%
    16:00 -5°C° 0 mm 2 m/s 585 mmHg 74%
    17:00 -6°C° 0 mm 2 m/s 585 mmHg 71%
    18:00 -6°C° 0 mm 2 m/s 586 mmHg 69%
    19:00 -7°C° 0 mm 2 m/s 586 mmHg 66%
    20:00 -6°C° 0 mm 2 m/s 587 mmHg 65%
    21:00 -6°C° 0 mm 2 m/s 587 mmHg 65%
    22:00 -6°C° 0 mm 2 m/s 588 mmHg 64%
    23:00 -6°C° 0 mm 2 m/s 588 mmHg 63%

    15 Dezembro, Domingo

    Tempo Temperatura Precipitação Vento Pressão Humidade
    00:00 -6°C° 0 mm 2 m/s 588 mmHg 62%
    01:00 -6°C° 0 mm 2 m/s 589 mmHg 61%
    02:00 -6°C° 0 mm 2 m/s 589 mmHg 60%
    03:00 -6°C° 0 mm 2 m/s 589 mmHg 58%
    04:00 -4°C° 0 mm 1 m/s 589 mmHg 57%
    05:00 -6°C° 0 mm 2 m/s 589 mmHg 59%
    06:00 -6°C° 0 mm 2 m/s 589 mmHg 61%
    07:00 -6°C° 0 mm 2 m/s 589 mmHg 62%
    08:00 -6°C° 0 mm 2 m/s 589 mmHg 66%
    09:00 -5°C° 0 mm 2 m/s 590 mmHg 69%
    10:00 -5°C° 0 mm 3 m/s 590 mmHg 72%
    11:00 -4°C° 0 mm 3 m/s 590 mmHg 75%
    12:00 -4°C° 0 mm 3 m/s 590 mmHg 78%
    13:00 -3°C° 0 mm 4 m/s 590 mmHg 81%
    14:00 -4°C° 0 mm 3 m/s 590 mmHg 82%
    15:00 -5°C° 0 mm 3 m/s 590 mmHg 84%
    16:00 -6°C° 0 mm 3 m/s 590 mmHg 85%
    17:00 -5°C° 0 mm 2 m/s 590 mmHg 86%
    18:00 -6°C° 0 mm 2 m/s 591 mmHg 86%
    19:00 -6°C° 0 mm 2 m/s 591 mmHg 86%
    20:00 -6°C° 0 mm 2 m/s 591 mmHg 86%
    21:00 -6°C° 0 mm 2 m/s 592 mmHg 87%
    22:00 -7°C° 0 mm 2 m/s 592 mmHg 87%
    23:00 -6°C° 0 mm 2 m/s 592 mmHg 88%
    Mostrar mais